This is the latest recevied weather packets stored in our database for station/object RK6MF-10. If no packets are shown the sender has not sent any weather packets the latest 10 day(s).
| Time | Temp. | Humidity | Pressure | Rain* | Wind** | Luminosity | Snow |
|---|---|---|---|---|---|---|---|
| 1777843963 | 7.22° C | 76% | 1011.6 hPa | - | - | - | - |
| 1777843063 | 7.22° C | 73% | 1011.7 hPa | - | - | - | - |
| 1777842163 | 7.78° C | 72% | 1011.7 hPa | - | - | - | - |
| 1777841263 | 7.78° C | 71% | 1011.7 hPa | - | - | - | - |
| 1777840363 | 7.78° C | 70% | 1011.6 hPa | - | - | - | - |
| 1777839463 | 8.33° C | 69% | 1011.7 hPa | - | - | - | - |
| 1777837665 | 8.33° C | 66% | 1011.6 hPa | - | - | - | - |
| 1777836765 | 8.89° C | 64% | 1011.6 hPa | - | - | - | - |
| 1777835865 | 9.44° C | 61% | 1011.7 hPa | - | - | - | - |
| 1777834965 | 9.44° C | 59% | 1012 hPa | - | - | - | - |
| 1777834065 | 10° C | 57% | 1012.1 hPa | - | - | - | - |
| 1777833165 | 10.56° C | 53% | 1012.2 hPa | - | - | - | - |
| 1777832265 | 10.56° C | 52% | 1012.3 hPa | - | - | - | - |
| 1777831365 | 10.56° C | 52% | 1012.2 hPa | - | - | - | - |
| 1777830465 | 11.11° C | 52% | 1012.4 hPa | - | - | - | - |
| 1777829565 | 11.11° C | 52% | 1012.3 hPa | - | - | - | - |
| 1777828664 | 11.11° C | 51% | 1012.3 hPa | - | - | - | - |
| 1777827764 | 11.67° C | 49% | 1012.2 hPa | - | - | - | - |
| 1777826864 | 12.22° C | 47% | 1012.1 hPa | - | - | - | - |
| 1777825964 | 12.22° C | 48% | 1012 hPa | - | - | - | - |
| 1777825064 | 12.78° C | 46% | 1012 hPa | - | - | - | - |
| 1777824164 | 13.33° C | 45% | 1011.9 hPa | - | - | - | - |
| 1777823264 | 13.89° C | 44% | 1011.8 hPa | - | - | - | - |
| 1777822364 | 13.89° C | 42% | 1011.8 hPa | - | - | - | - |
| 1777821463 | 14.44° C | 41% | 1011.9 hPa | - | - | - | - |
* Rain since midnight (hover to see other rain measurements)
** Current wind speed in m/s (hover to see current wind gust speed)